Weather History for Hereford, TX

Change the Weather History Date:

Monday, April 15, 2013

  Actual Average (KAMA) Record (KAMA)
Temperature  
Mean Temperature 59 °F 56 °F  
Max Temperature 80 °F 71 °F 93 °F (1963)
Min Temperature 38 °F 41 °F 24 °F (2014)
Degree Days  
Heating Degree Days 6 9  
Month to date heating degree days 170  
Since 1 July heating degree days 3979  
Cooling Degree Days 0 1  
Month to date cooling degree days 1  
Year to date cooling degree days 3  
Growing Degree Days 9 (Base 50)    
Moisture  
Dew Point 24 °F    
Average Humidity 29    
Maximum Humidity 50    
Minimum Humidity 12    
Precipitation  
Precipitation 0.00 in 0.04 in 1.46 in (2010)
Month to date precipitation 0.63  
Year to date precipitation 3.30  
Snow  
Snow 0.00 in 0.00 in 0.60 in (1945)
Month to date snowfall 0.5  
Since 1 July snowfall 17.4  
Snow Depth -    
Sea Level Pressure  
Sea Level Pressure 29.73 in    
Wind  
Wind Speed 14 mph (ESE)    
Max Wind Speed 23 mph    
Max Gust Speed 29 mph    
Visibility 10 miles    
Events      
T = Trace of Precipitation, MM = Missing Value Source: NWS Daily Summary

Daily Weather History Graph

Daily Weather History Graph

Search for Another Location

Airport:

Trip Planner

Search our weather history database for the weather conditions in past years. The results will help you decide how hot, cold, wet, or windy it might be!

Date:

Astronomy

Apr. 15, 2013 Rise Set
Actual Time 7:17 AM CDT 8:21 PM CDT
Civil Twilight 6:51 AM CDT 8:47 PM CDT
Nautical Twilight 6:20 AM CDT 9:18 PM CDT
Astronomical Twilight 5:48 AM CDT 9:51 PM CDT
Moon 10:51 AM CDT (4/15) 12:29 AM CDT (4/15)
Length of Visible Light 13h 56m
Length of Day
13h 04m
Waxing Crescent, 25% of the Moon is Illuminated
Apr 15
Waxing Crescent
Apr 18
First Quarter
Apr 25
Full
May 2
Last Quarter
May 9
New

Hourly Weather History & Observations

Time (CDT) Temp. Windchill Dew Point Humidity Pressure Visibility Wind Dir Wind Speed Gust Speed Precip Events Conditions
12:15 AM 61.7 °F - 36.5 °F 39% 29.64 in 10.0 mi ENE 23.0 mph 28.8 mph N/A   Clear
12:35 AM 60.4 °F - 38.5 °F 44% 29.65 in 10.0 mi East 20.7 mph 28.8 mph N/A   Clear
12:55 AM 59.0 °F - 39.2 °F 48% 29.66 in 10.0 mi ENE 21.9 mph 28.8 mph N/A   Clear
1:15 AM 57.6 °F - 38.3 °F 49% 29.66 in 10.0 mi ENE 21.9 mph 28.8 mph N/A   Clear
1:35 AM 56.3 °F - 37.4 °F 49% 29.67 in 10.0 mi ENE 19.6 mph 24.2 mph N/A   Clear
1:55 AM 53.8 °F - 29.5 °F 39% 29.67 in 10.0 mi East 20.7 mph 27.6 mph N/A   Clear
2:15 AM 52.5 °F - 25.9 °F 36% 29.69 in 10.0 mi ENE 16.1 mph 23.0 mph N/A   Clear
2:35 AM 51.1 °F - 23.0 °F 33% 29.70 in 10.0 mi ENE 16.1 mph 20.7 mph N/A   Clear
2:55 AM 49.8 °F - 21.9 °F 33% 29.71 in 10.0 mi ENE 15.0 mph - N/A   Clear
3:15 AM 48.6 °F - 21.7 °F 35% 29.71 in 10.0 mi ENE 13.8 mph - N/A   Clear
3:35 AM 47.3 °F - 21.7 °F 36% 29.71 in 10.0 mi ENE 11.5 mph - N/A   Clear
3:55 AM 46.6 °F - 21.7 °F 37% 29.71 in 10.0 mi ENE 13.8 mph - N/A   Clear
4:15 AM 46.2 °F 40.8 °F 21.0 °F 37% 29.71 in 10.0 mi ENE 11.5 mph - N/A   Clear
4:35 AM 45.1 °F 40.3 °F 20.3 °F 37% 29.72 in 10.0 mi ENE 9.2 mph - N/A   Clear
4:55 AM 43.2 °F 38.4 °F 20.3 °F 40% 29.73 in 10.0 mi NE 8.1 mph - N/A   Clear
5:15 AM 42.8 °F 37.5 °F 19.4 °F 39% 29.73 in 10.0 mi NE 9.2 mph - N/A   Clear
5:35 AM 40.6 °F 36.0 °F 19.9 °F 44% 29.74 in 10.0 mi NNE 6.9 mph - N/A   Clear
5:55 AM 39.2 °F 35.0 °F 19.9 °F 46% 29.75 in 10.0 mi NNE 5.8 mph - N/A   Clear
6:15 AM 38.3 °F 33.9 °F 21.0 °F 50% 29.75 in 10.0 mi NNE 5.8 mph - N/A   Clear
6:35 AM 38.8 °F 33.8 °F 20.7 °F 48% 29.76 in 10.0 mi ENE 6.9 mph - N/A   Clear
6:55 AM 39.0 °F 34.0 °F 20.3 °F 47% 29.77 in 10.0 mi ENE 6.9 mph - N/A   Clear
7:15 AM 38.3 °F 33.9 °F 20.3 °F 48% 29.77 in 10.0 mi NE 5.8 mph - N/A   Clear
7:35 AM 40.1 °F 35.3 °F 20.5 °F 45% 29.80 in 10.0 mi NNW 6.9 mph - N/A   Clear
7:55 AM 39.0 °F 34.0 °F 19.8 °F 46% 29.80 in 10.0 mi North 6.9 mph - N/A   Clear
8:15 AM 39.9 °F 35.1 °F 19.4 °F 44% 29.81 in 10.0 mi North 6.9 mph - N/A   Clear
8:35 AM 44.1 °F 38.6 °F 19.0 °F 37% 29.81 in 10.0 mi NNE 10.4 mph - N/A   Clear
8:55 AM 46.6 °F - 18.3 °F 32% 29.81 in 10.0 mi NE 10.4 mph - N/A   Clear
9:15 AM 48.4 °F - 18.1 °F 30% 29.80 in 10.0 mi ENE 11.5 mph 17.3 mph N/A   Clear
9:35 AM 50.5 °F - 18.1 °F 28% 29.81 in 10.0 mi ENE 12.7 mph 19.6 mph N/A   Clear
9:55 AM 52.0 °F - 18.7 °F 27% 29.80 in 10.0 mi ENE 13.8 mph - N/A   Clear
10:15 AM 53.6 °F - 21.0 °F 28% 29.81 in 10.0 mi ENE 10.4 mph - N/A   Clear
10:35 AM 54.1 °F - 21.9 °F 29% 29.80 in 10.0 mi East 9.2 mph - N/A   Clear
10:55 AM 55.6 °F - 23.2 °F 29% 29.80 in 10.0 mi ENE 10.4 mph - N/A   Clear
11:15 AM 57.0 °F - 24.3 °F 28% 29.81 in 10.0 mi East 6.9 mph - N/A   Clear
11:35 AM 57.9 °F - 24.6 °F 28% 29.81 in 10.0 mi ENE 3.5 mph - N/A   Clear
11:55 AM 58.6 °F - 25.0 °F 28% 29.81 in 10.0 mi East 8.1 mph - N/A   Clear
12:15 PM 60.3 °F - 25.3 °F 26% 29.80 in 10.0 mi SE 8.1 mph - N/A   Clear
12:35 PM 60.8 °F - 25.2 °F 26% 29.80 in 10.0 mi SSE 5.8 mph - N/A   Clear
12:55 PM 64.2 °F - 25.9 °F 23% 29.79 in 10.0 mi SSE 8.1 mph - N/A   Clear
1:15 PM 65.5 °F - 25.5 °F 22% 29.78 in 10.0 mi SSE 3.5 mph - N/A   Clear
1:35 PM 68.0 °F - 25.5 °F 20% 29.77 in 10.0 mi South 10.4 mph 16.1 mph N/A   Clear
1:55 PM 69.8 °F - 25.7 °F 19% 29.76 in 10.0 mi SSW 8.1 mph 16.1 mph N/A   Clear
2:15 PM 70.7 °F - 26.1 °F 19% 29.76 in 10.0 mi SSW 11.5 mph 19.6 mph N/A   Clear
2:35 PM 72.5 °F - 26.2 °F 18% 29.75 in 10.0 mi SSW 12.7 mph 18.4 mph N/A   Clear
2:55 PM 72.7 °F - 26.8 °F 18% 29.74 in 10.0 mi SSW 10.4 mph 17.3 mph N/A   Clear
3:15 PM 74.3 °F - 27.1 °F 17% 29.74 in 10.0 mi SW 12.7 mph - N/A   Clear
3:35 PM 74.7 °F - 27.9 °F 18% 29.73 in 10.0 mi SSW 12.7 mph 24.2 mph N/A   Clear
3:55 PM 75.4 °F - 28.4 °F 18% 29.72 in 10.0 mi South 15.0 mph 20.7 mph N/A   Clear
4:15 PM 76.8 °F - 26.4 °F 16% 29.71 in 10.0 mi SSW 21.9 mph 28.8 mph N/A   Clear
4:35 PM 77.5 °F - 25.0 °F 14% 29.70 in 10.0 mi SW 15.0 mph 27.6 mph N/A   Clear
4:55 PM 79.3 °F - 26.8 °F 15% 29.68 in 10.0 mi South 16.1 mph - N/A   Clear
5:15 PM 79.9 °F - 23.7 °F 13% 29.68 in 10.0 mi SW 13.8 mph 24.2 mph N/A   Clear
5:35 PM 80.4 °F - 23.9 °F 12% 29.67 in 10.0 mi SSW 17.3 mph 24.2 mph N/A   Clear
5:55 PM 79.7 °F - 25.3 °F 14% 29.66 in 10.0 mi SSE 15.0 mph 23.0 mph N/A   Clear
6:15 PM 79.5 °F - 25.7 °F 14% 29.66 in 10.0 mi South 12.7 mph - N/A   Clear
6:35 PM 79.9 °F - 25.5 °F 14% 29.65 in 10.0 mi South 13.8 mph 19.6 mph N/A   Clear
6:55 PM 79.9 °F - 25.7 °F 14% 29.65 in 10.0 mi South 11.5 mph - N/A   Clear
7:15 PM 79.7 °F - 26.4 °F 14% 29.65 in 10.0 mi SSE 11.5 mph - N/A   Clear
7:35 PM 78.8 °F - 25.7 °F 14% 29.65 in 10.0 mi SSE 9.2 mph - N/A   Clear
7:55 PM 77.9 °F - 22.3 °F 13% 29.65 in 10.0 mi SW 9.2 mph - N/A   Clear
8:15 PM 74.3 °F - 19.6 °F 13% 29.66 in 5.0 mi SW 8.1 mph - N/A   Haze
8:35 PM 69.8 °F - 19.2 °F 15% 29.66 in 7.0 mi South 6.9 mph - N/A   Clear
8:55 PM 68.2 °F - 19.4 °F 16% 29.66 in 10.0 mi South 5.8 mph - N/A   Clear
9:15 PM 64.9 °F - 19.9 °F 18% 29.67 in 10.0 mi South 5.8 mph - N/A   Clear
9:35 PM 59.9 °F - 24.1 °F 25% 29.69 in 10.0 mi East 10.4 mph - N/A   Clear
9:55 PM 61.2 °F - 29.7 °F 30% 29.70 in 10.0 mi East 5.8 mph - N/A   Clear
10:15 PM 59.9 °F - 29.7 °F 32% 29.70 in 10.0 mi ESE 9.2 mph - N/A   Clear
10:35 PM 62.6 °F - 26.8 °F 26% 29.70 in 10.0 mi SE 13.8 mph 18.4 mph N/A   Clear
10:55 PM 62.6 °F - 24.6 °F 24% 29.71 in 10.0 mi SSE 13.8 mph - N/A   Clear
11:15 PM 63.7 °F - 23.2 °F 21% 29.71 in 10.0 mi SSE 17.3 mph - N/A   Clear
11:35 PM 62.2 °F - 24.1 °F 23% 29.73 in 10.0 mi ESE 18.4 mph - N/A   Clear
11:55 PM 62.4 °F - 31.5 °F 31% 29.73 in 10.0 mi SE 19.6 mph - N/A   Clear